Precipitable_Water
0.59 0.54 0.52 0.51 0.51 0.50 0.49 0.48 0.46 0.43 0.42 0.40 0.39 0.39 0.38 0.39 0.41 0.42 0.45 0.49 0.53 0.52
0.53 0.52 0.51 0.49 0.48 0.46 0.43 0.39 0.35 0.33 0.31 0.29 0.27 0.26 0.26 0.29 0.29 0.31 0.39 0.45 0.43 0.42
0.52 0.51 0.50 0.47 0.42 0.37 0.32 0.30 0.28 0.25 0.24 0.23 0.22 0.22 0.22 0.25 0.22 0.26 0.35 0.30 0.28 0.30
0.51 0.46 0.40 0.35 0.31 0.27 0.26 0.25 0.24 0.23 0.23 0.22 0.21 0.21 0.21 0.22 0.21 0.22 0.26 0.24 0.24 0.28
0.43 0.39 0.34 0.29 0.27 0.26 0.25 0.25 0.23 0.22 0.22 0.21 0.21 0.21 0.20 0.20 0.20 0.23 0.22 0.25 0.27 0.31
0.40 0.34 0.32 0.30 0.27 0.25 0.25 0.24 0.22 0.22 0.21 0.20 0.20 0.20 0.19 0.20 0.22 0.24 0.25 0.27 0.24 0.21
0.35 0.34 0.31 0.28 0.27 0.26 0.25 0.23 0.22 0.20 0.20 0.19 0.19 0.19 0.20 0.22 0.23 0.24 0.26 0.24 0.21 0.19
0.35 0.30 0.28 0.28 0.27 0.25 0.23 0.21 0.20 0.19 0.18 0.18 0.19 0.17 0.19 0.20 0.20 0.20 0.20 0.20 0.19 0.20
0.33 0.30 0.28 0.26 0.24 0.22 0.20 0.19 0.18 0.17 0.16 0.15 0.16 0.17 0.18 0.19 0.19 0.18 0.17 0.17 0.19 0.20
0.30 0.28 0.26 0.23 0.21 0.19 0.17 0.16 0.15 0.15 0.15 0.14 0.14 0.15 0.17 0.19 0.19 0.18 0.18 0.19 0.18 0.20
0.29 0.25 0.23 0.20 0.17 0.14 0.15 0.15 0.15 0.14 0.14 0.14 0.14 0.15 0.18 0.20 0.20 0.19 0.19 0.20 0.21 0.24
0.26 0.23 0.18 0.14 0.14 0.16 0.16 0.15 0.14 0.14 0.14 0.13 0.14 0.16 0.18 0.21 0.20 0.20 0.20 0.21 0.23 0.29
0.21 0.16 0.14 0.15 0.17 0.17 0.16 0.15 0.15 0.14 0.14 0.15 0.15 0.17 0.20 0.21 0.21 0.20 0.20 0.23 0.27 0.25
0.16 0.15 0.16 0.18 0.17 0.16 0.15 0.15 0.14 0.14 0.14 0.15 0.17 0.18 0.20 0.21 0.21 0.21 0.23 0.25 0.22 0.22
Wind_Speed
24 26 29 31 34 36 39 41 44 45 47 48 49 51 52 53 54 55 55 56 55 56
28 30 32 35 37 40 42 45 46 47 49 50 52 53 54 54 55 56 56 55 56 57
31 33 35 38 40 43 45 46 48 49 50 52 53 54 54 55 56 56 56 57 58 57
34 36 38 40 43 45 47 48 49 50 51 53 54 55 56 57 57 58 58 58 58 58
36 38 41 43 46 47 48 49 50 52 53 55 56 57 58 59 59 59 59 59 57 55
39 42 44 46 48 48 49 51 52 54 55 57 58 59 60 60 61 60 60 57 56 55
42 44 46 48 49 50 51 53 54 56 57 58 60 61 61 62 61 60 58 56 55 54
45 47 48 49 50 51 52 54 56 57 59 60 61 61 62 61 60 59 58 56 56 55
47 48 48 50 51 52 54 55 57 59 60 61 61 62 62 61 60 59 59 58 57 57
47 48 49 50 52 53 55 57 58 60 61 62 63 63 62 61 59 59 58 58 58 56
47 48 50 51 52 54 56 58 60 61 62 63 62 61 60 59 57 57 55 54 52 51
47 49 50 52 54 55 57 59 61 61 62 61 59 58 57 57 55 53 51 49 47 46
47 49 51 53 54 56 58 60 61 61 60 59 58 56 55 54 52 49 46 44 44 45
48 50 51 53 55 57 59 60 60 61 60 58 55 54 53 50 46 44 44 43 43 42
Wind_Direction
318 316 316 315 315 314 313 313 312 312 311 310 309 308 307 305 304 303 301 300 299 297
317 317 316 316 315 315 314 314 313 313 312 312 311 310 309 307 306 304 303 301 300 299
318 317 317 317 317 316 315 315 314 314 314 313 312 311 310 309 308 306 304 303 302 300
317 317 318 318 317 317 316 316 315 315 314 314 313 313 311 310 308 307 305 304 302 301
317 317 317 318 318 317 317 317 316 316 315 314 313 313 311 310 309 307 306 305 303 302
316 316 317 317 318 318 317 317 317 316 315 314 314 313 312 311 309 308 307 306 304 303
316 316 317 317 317 317 317 316 317 316 315 315 315 314 313 312 311 309 307 305 304 302
316 316 316 317 317 317 317 317 317 317 317 316 316 315 314 313 311 309 307 306 304 302
315 316 316 317 317 318 318 318 318 318 318 318 317 316 315 313 311 309 308 306 304 303
315 316 317 318 318 318 318 319 319 319 319 318 317 316 315 313 311 310 309 307 306 304
315 317 318 318 318 319 319 320 320 320 320 319 318 317 316 315 313 312 311 310 310 308
316 317 318 319 319 320 320 321 321 321 320 320 319 319 318 318 316 316 314 314 314 313
317 317 319 319 320 320 321 321 321 321 321 321 320 320 320 320 319 319 319 318 317 316
318 318 319 319 320 321 321 321 322 322 322 321 321 321 321 321 321 321 321 321 321 320